Regional Weather Roundup
Issued by NWS

Home | Current Version | Previous Version | Text Only | Print | Product List | Glossary On
Versions: 1 2 3 4 5 6 7 8 9 10 11 12 13 14 15 16 17 18 19 20 21 22 23 24 25 26 27 28 29 30 31 32 33 34 35 36 37 38 39 40 41 42 43 44 45 46 47 48 49 50
000
ASUS43 KDTX 201601
RWRMI
MICHIGAN HOURLY REGIONAL WEATHER ROUNDUP
NATIONAL WEATHER SERVICE DETROIT/PONTIAC MI
1100 AM EST SAT DEC 20 2014

NOTE: "FAIR" INDICATES FEW OR NO CLOUDS BELOW 12,000 FEET WITH NO
SIGNIFICANT WEATHER AND/OR OBSTRUCTION TO VISIBILITY.

MIZ047>049-052>055-059>063-066>070-074>076-081>083-201700-
SOUTHEAST LOWER MICHIGAN

CITY           SKY/WX    TMP DP  RH WIND       PRES   REMARKS
ADRIAN         CLOUDY    30  20  66 S6        30.30S WCI  24
ALMA           MOSUNNY   26  25  96 CALM      30.30F FOG
ANN ARBOR      CLOUDY    29  22  75 CALM      30.30F
BAD AXE        MOSUNNY   26  25  96 CALM      30.31S
CARO           MOSUNNY   25  22  89 CALM      30.30S
DETROIT CITY   CLOUDY    31  20  63 CALM      30.32S
DETROIT        CLOUDY    29  22  75 CALM      30.32F
FLINT          CLOUDY    29  22  75 SE3       30.31R
GROSSE ILE     CLOUDY    30  23  74 NE5       30.30F WCI  25
HILLSDALE      CLOUDY    29  22  76 CALM      30.26S
HOWELL         CLOUDY    28  20  72 CALM      30.28F

CITY           SKY/WX    TMP DP  RH WIND       PRES   REMARKS
JACKSON        CLOUDY    28  20  71 CALM      30.28S
LAMBERTVILLE   CLOUDY    32  21  64 SE3       30.31S
LANSING        MOSUNNY   27  24  89 CALM      30.30S FOG
LAPEER         CLOUDY    26  24  91 CALM      30.31S
MASON          CLOUDY    28  20  73 CALM      30.29S
MONROE         CLOUDY    28  23  80 CALM      30.30S
MT. CLEMENS    CLOUDY    29  24  83 CALM      30.30R
PONTIAC        CLOUDY    27  21  78 CALM      30.28F
PORT HOPE        N/A     30  20  66 SW5       30.29F WCI  25
PORT HURON     CLOUDY    27  25  93 CALM      30.32R
TRI CITIES     MOSUNNY   26  22  84 CALM      30.31S
TROY           CLOUDY    30  21  69 CALM      30.32F
SAGINAW HB     MOSUNNY   28  25  86 CALM      30.31S
$$
MIZ043>046-050>051-056>058-064>065-071>073-077>080-201700-
SOUTHWEST LOWER MICHIGAN

CITY           SKY/WX    TMP DP  RH WIND       PRES   REMARKS
BATTLE CREEK   MOSUNNY   30  22  72 SE5       30.29R WCI  25
BENTON HARBOR  CLOUDY    30  26  85 CALM      30.28S
BIG RAPIDS     PTSUNNY   24  22  93 CALM      30.28S
COLDWATER      MOSUNNY   29  22  72 CALM      30.28S
FREMONT        CLOUDY    25  23  93 CALM      30.28S
HOLLAND        CLOUDY    28  22  78 SE5       30.29S WCI  23
GRAND RAPIDS   PTSUNNY   29  24  82 S7        30.29R WCI  22
IONIA          FAIR      27  26  96 SE3       30.28S FOG
KALAMAZOO      PTSUNNY   28  24  85 S3        30.29R FOG
LUDINGTON      CLOUDY    26  21  82 SE7       30.29S WCI  18
MARSHALL       CLOUDY    28  20  74 S3        30.28S
MOUNT PLEASANT MOSUNNY   23  21  95 CALM      30.29S
MUSKEGON       CLOUDY    26  21  81 E6        30.29S WCI  19
SOUTH HAVEN    CLOUDY    28  24  85 CALM      30.29S
$$
MIZ016>042-201700-
NORTHERN LOWER MICHIGAN

CITY           SKY/WX    TMP DP  RH WIND       PRES   REMARKS
ALPENA         SUNNY     22  20  92 CALM      30.31F
BEAVER ISLAND  CLOUDY    27  26  96 CALM      30.28S
BELLAIRE       CLOUDY    26  21  79 CALM      30.30S
CADILLAC       PTSUNNY   20  18  89 CALM      30.25R
CHARLEVOIX     CLOUDY    25  21  84 SE7       30.32S WCI  18
FRANKFORT      CLOUDY    28  23  82 SE3       30.28S
GAYLORD        CLOUDY    21  21 100 CALM      30.25F
GRAYLING       CLOUDY    19  18  93 CALM      30.28S
HARBOR SPRINGS CLOUDY    21  19  89 NE5       30.29S WCI  15
HOUGHTON LAKE  PTSUNNY   20  18  92 CALM      30.28S
MANISTEE       CLOUDY    23  18  80 E5        30.29S WCI  17
OSCODA         MOSUNNY   23  21  93 CALM      30.30F
PELLSTON       CLOUDY    19  16  88 CALM      30.31R
ROGERS CITY    MOSUNNY   24  22  93 CALM      30.32S
TRAVERSE CITY  CLOUDY    28  20  71 CALM      30.28S
$$
MIZ007>008-015-201700-
EASTERN UPPER MICHIGAN

CITY           SKY/WX    TMP DP  RH WIND       PRES   REMARKS
KINROSS        CLOUDY    21  21 100 E3        30.30S
MACKINAC ISLAN CLOUDY    26  22  84 E5        30.29S WCI  21
NEWBERRY       SUNNY     24  20  85 CALM      30.27S
S. S. MARIE    CLOUDY    17  15  92 E3        30.33R
MUNISING         N/A     24  19  81 S5        30.27R WCI  18
$$
MIZ004>006-011>014-085-201700-
CENTRAL UPPER MICHIGAN

CITY           SKY/WX    TMP DP  RH WIND       PRES   REMARKS
MANISTIQUE     PTSUNNY   28  25  86 E6        30.27S WCI  22
ESCANABA       PTSUNNY   19  16  86 CALM      30.27R
MENOMINEE      CLOUDY    23  19  86 CALM      30.27S
SAWYER-GWINN   PTSUNNY   12   9  85 CALM      30.22R
$$
MIZ001>003-009>011-084-201700-
WESTERN UPPER MICHIGAN

CITY           SKY/WX    TMP DP  RH WIND       PRES   REMARKS
IRON MOUNTAIN  CLOUDY    21  19  92 CALM      30.22R
HOUGHTON       CLOUDY    22  20  92 CALM      30.19R
COPPER HARBOR    N/A     26  20  77 SW7       30.21S WCI  18
IRONWOOD       CLOUDY    27  25  93 S6        30.15S WCI  20
$$

ABBREVIATIONS USED IN REMARKS
   TC - TEMPERATURE IN CELSIUS
  WCI - WIND CHILL INDEX
   HX - HEAT INDEX
  VSB - VISIBILITY




USA.gov is the U.S. government's official web portal to all federal, state and local government web resources and services.